Regional Weather Roundup
Issued by NWS

Home | Current Version | Previous Version | Text Only | Print | Product List | Glossary Off
Versions: 1 2 3 4 5 6 7 8 9 10 11 12 13 14 15 16 17 18 19 20 21 22 23 24 25 26 27 28 29 30 31 32 33 34 35 36 37 38 39 40 41 42 43 44 45 46 47 48 49 50

000
ASUS43 KBIS 190410
RWRND

NORTH DAKOTA REGIONAL WEATHER ROUNDUP
NATIONAL WEATHER SERVICE BISMARCK ND
1100 PM CDT WED OCT 18 2017

NOTE: "FAIR" INDICATES FEW OR NO CLOUDS BELOW 12,000 FEET WITH NO
SIGNIFICANT WEATHER AND/OR OBSTRUCTIONS TO VISIBILITY.


NDZ001>003-009>011-017-190500-
NORTHWEST NORTH DAKOTA

CITY           SKY/WX    TMP DP  RH WIND       PRES   REMARKS
WILLISTON      CLOUDY    33  26  75 CALM      29.85F
MINOT          CLOUDY    42  24  49 SW8       29.87F
MINOT AFB      CLOUDY    34  22  59 W3        29.86F
$$

NDZ018>021-031>035-040>046-190500-
SOUTHWEST NORTH DAKOTA

CITY           SKY/WX    TMP DP  RH WIND       PRES   REMARKS
BISMARCK       CLOUDY    41  25  53 CALM      29.94F
DICKINSON      CLOUDY    37  25  61 S9        29.89F
GARRISON         N/A     36  24  62 S3        29.90S
HETTINGER ARPT CLOUDY    43  25  49 SE5       29.94F
$$

NDZ004>008-012>016-024-026-027-054-190500-
NORTHEAST NORTH DAKOTA

CITY           SKY/WX    TMP DP  RH WIND       PRES   REMARKS
GRAND FORKS    CLOUDY    49  24  37 W10       29.88S
GRND FRKS AFB  CLOUDY    50  23  34 W15G23    29.88R
DEVILS LAKE    CLOUDY    44  29  55 SW12      29.90S
$$

NDZ022-023-025-028>030-036>039-047>053-190500-
SOUTHEAST NORTH DAKOTA

CITY           SKY/WX    TMP DP  RH WIND       PRES   REMARKS
FARGO          CLOUDY    45  26  47 SW12      29.94S
JAMESTOWN      CLOUDY    44  26  49 SW6       29.94F
$$




USA.gov is the U.S. government's official web portal to all federal, state and local government web resources and services.